[[{"header":{"parameterUnit":"m.s-1","parameterCategory":1,"la1":30.2991,"la2":30.254,"lo1":-89.0895,"lo2":-89.0444,"dy":0.0017,"dx":0.0017,"nx":28,"ny":28,"refTime":"2025-07-25T03:00:00:Z","depth":0,"parameterNumber":2,"parameterNumberName":"U-component_of_WINDS"},"data":[0,0,0,0,0,0,0,0,0,0,0,0,0,0,0,0,0,0,0,0,0,0,0,0,0,0,0,0,0,0,0,0,0,0,0,0,0,0,0,0,0,0,0,0,0,0,0,0,0,0,0,0,0,0,0,0,0,0,-1.0401,-1.0401,0,-1.042,-1.042,-1.0421,-1.0409,-1.0408,-1.0407,-1.0407,-1.0427,-1.0428,-1.0429,0,0,0,0,0,0,0,0,0,0,0,0,0,-1.0353,-1.0354,-1.0401,-1.0401,-1.0401,-1.042,-1.042,-1.0421,-1.0409,-1.0408,-1.0407,-1.0407,-1.0427,-1.0428,-1.0429,0,0,0,0,0,0,0,0,0,0,0,0,0,-1.0373,-1.0354,-1.04,-1.0397,-1.0397,-1.042,-1.042,-1.0421,-1.0409,-1.0408,-1.0407,-1.0406,-1.0426,-1.0428,-1.0429,-1.0456,0,0,-1.0434,-1.0435,0,0,0,0,0,0,0,0,-1.0372,-1.0375,-1.0398,-1.0398,-1.0398,-1.0411,-1.0411,-1.0433,-1.0409,-1.0404,-1.0407,-1.0406,-1.0422,-1.0424,-1.043,-1.0457,-1.0458,-1.0434,-1.0435,-1.0436,-1.0436,0,0,0,0,0,0,0,-1.0371,-1.0374,-1.0408,-1.0398,-1.0398,-1.0395,-1.0397,-1.0415,-1.0418,-1.0405,-1.0404,-1.0406,-1.0422,-1.0428,-1.043,-1.0458,-1.0434,-1.0436,-1.0437,-1.0437,-1.0509,-1.051,0,0,0,0,0,0,-1.0369,-1.0373,-1.0408,-1.0409,-1.0382,-1.0397,-1.0399,-1.0408,-1.0418,-1.0418,-1.0407,-1.0406,-1.0426,-1.0428,-1.0431,-1.0463,-1.0436,-1.0437,-1.0438,-1.0508,-1.0509,-1.051,0,0,0,0,0,0,-1.0368,-1.0373,-1.0407,-1.0391,-1.0395,-1.0398,-1.0408,-1.0408,-1.0414,-1.0419,-1.042,-1.0413,-1.0425,-1.0429,-1.045,-1.0464,-1.0438,-1.044,-1.0507,-1.0508,-1.051,-1.0528,0,0,0,0,0,0,-1.0367,-1.0372,-1.0383,-1.0391,-1.0396,-1.0426,-1.0409,-1.0409,-1.0417,-1.0416,-1.0425,-1.0426,-1.0425,-1.0448,-1.0452,-1.0465,-1.0441,-1.0506,-1.0508,-1.0509,-1.0526,-1.053,-1.0533,0,0,0,0,0,-1.0366,-1.0387,-1.0383,-1.0387,-1.0409,-1.0427,-1.0429,-1.0428,-1.0418,-1.0429,-1.0432,-1.0425,-1.0462,-1.045,-1.0454,-1.0469,-1.0505,-1.0507,-1.0509,-1.0524,-1.0529,-1.0533,0,0,0,0,0,0,-1.038,-1.0388,-1.0384,-1.0409,-1.0417,-1.0425,-1.0438,-1.0433,-1.0444,-1.0442,-1.044,-1.0442,-1.0465,-1.0469,-1.0456,-1.0495,-1.0482,-1.0485,-1.0492,-1.0496,-1.0499,-1.0498,-1.0442,0,0,0,0,0,-1.0386,-1.04,-1.0406,-1.0428,-1.0432,-1.0434,-1.0442,-1.044,-1.0449,-1.0452,-1.0457,-1.0466,-1.0479,-1.0488,-1.05,-1.0527,-1.0529,-1.0539,-1.0542,-1.0545,-1.0547,-1.0562,-1.0566,-1.0517,-1.0517,-1.0517,0,0,-1.0399,-1.0405,-1.0414,-1.0431,-1.0437,-1.0451,-1.0437,-1.0453,-1.0464,-1.0455,-1.0475,-1.0479,-1.0489,-1.0513,-1.0524,-1.0517,-1.0561,-1.0548,-1.055,-1.0551,-1.0564,-1.0569,-1.0573,-1.0519,-1.0519,-1.0518,0,0,-1.043,-1.0436,-1.0454,-1.0461,-1.047,-1.0471,-1.0476,-1.0484,-1.0486,-1.0507,-1.0501,-1.0513,-1.0536,-1.0543,-1.055,-1.0583,-1.0578,-1.0588,-1.0605,-1.0619,-1.0623,-1.0627,-1.0639,-1.0643,-1.059,-1.059,-1.059,0,-1.0444,-1.0466,-1.0464,-1.048,-1.0488,-1.048,-1.0499,-1.0506,-1.0519,-1.0524,-1.0517,-1.0545,-1.0551,-1.0577,-1.0585,-1.0591,-1.0596,-1.0586,-1.0623,-1.0626,-1.0629,-1.0641,-1.0645,-1.0591,-1.0591,-1.0591,-1.0591,0,-1.0483,-1.0498,-1.0512,-1.0525,-1.0534,-1.0552,-1.0553,-1.0562,-1.056,-1.0562,-1.0583,-1.059,-1.0604,-1.061,-1.0607,-1.0635,-1.0631,-1.0623,-1.0609,-1.0635,-1.0646,-1.065,-1.0593,-1.0593,-1.0592,-1.0592,0,0,-1.0524,-1.0535,-1.0541,-1.0546,-1.0556,-1.0568,-1.0585,-1.0599,-1.0607,-1.0616,-1.0631,-1.0651,-1.0644,-1.0651,-1.065,-1.0662,-1.0688,-1.0653,-1.0653,-1.0659,-1.0719,-1.0725,-1.073,-1.0684,-1.0685,-1.0686,-1.0718,0,-1.0555,-1.0585,-1.0584,-1.0612,-1.0626,-1.0619,-1.0633,-1.0641,-1.0644,-1.0656,-1.0659,-1.0673,-1.0663,-1.0667,-1.0679,-1.0682,-1.07,-1.068,-1.0698,-1.0699,-1.0696,-1.0735,-1.0741,-1.0772,-1.0722,-1.0723,-1.0724,0,-1.0596,-1.0606,-1.0636,-1.0644,-1.0649,-1.0663,-1.0675,-1.0687,-1.0696,-1.0697,-1.0705,-1.0702,-1.0719,-1.0705,-1.0729,-1.0716,-1.0723,-1.0726,-1.0727,-1.0729,-1.0713,-1.0738,-1.0781,-1.0786,-1.073,-1.073,-1.0729,0,-1.0622,-1.0644,-1.0664,-1.0669,-1.0679,-1.0689,-1.0694,-1.0702,-1.071,-1.072,-1.0726,-1.0739,-1.0746,-1.0756,-1.0756,-1.0745,-1.078,-1.0766,-1.0782,-1.0782,-1.0789,-1.0789,-1.0834,-1.0794,-1.0794,-1.0794,-1.0794,0,-1.0657,-1.0676,-1.0676,-1.0689,-1.0709,-1.0708,-1.0728,-1.0731,-1.0738,-1.0752,-1.0746,-1.0759,-1.0758,-1.0771,-1.0772,-1.0792,-1.0795,-1.0796,-1.0796,-1.0797,-1.0797,-1.0801,-1.0799,-1.0795,-1.0795,-1.0795,-1.0794,0,-1.0691,-1.0692,-1.0714,-1.0721,-1.0723,-1.0738,-1.0744,-1.0756,-1.0758,-1.0775,-1.0779,-1.0782,-1.0797,-1.0798,-1.0815,-1.0815,-1.084,-1.0837,-1.0837,-1.0836,-1.0852,-1.0851,-1.0902,-1.0909,-1.0864,-1.0865,-1.0865,0,-1.0713,-1.0727,-1.0736,-1.0744,-1.0749,-1.0763,-1.0771,-1.077,-1.0779,-1.079,-1.0801,-1.0815,-1.0826,-1.085,-1.0854,-1.0867,-1.0865,-1.0882,-1.0867,-1.0867,-1.0866,-1.0865,-1.0866,-1.0885,-1.0886,-1.0886,-1.0887,0,-1.0753,-1.0753,-1.0765,-1.0777,-1.0787,-1.0797,-1.0806,-1.0813,-1.0813,-1.0823,-1.0838,-1.0847,-1.0864,-1.0879,-1.0891,-1.0896,-1.0892,-1.0891,-1.0896,-1.0897,-1.0896,-1.0896,-1.0845,-1.089,-1.089,-1.089,-1.0889,-1.0889,-1.0782,-1.0794,-1.0802,-1.0815,-1.0822,-1.083,-1.0842,-1.0845,-1.0857,-1.0871,-1.087,-1.0887,-1.0895,-1.0912,-1.0918,-1.0931,-1.0925,-1.0931,-1.0933,-1.0935,-1.0936,-1.0893,-1.0933,-1.0933,-1.0933,-1.0933,-1.0933,0,-1.0822,-1.0826,-1.0839,-1.0851,-1.0862,-1.0856,-1.0866,-1.0875,-1.089,-1.0898,-1.0909,-1.0926,-1.094,-1.0945,-1.0958,-1.0968,-1.0966,-1.0972,-1.0971,-1.0972,-1.0941,-1.0935,-1.0973,-1.0973,-1.0973,-1.0973,-1.0973,-1.0973,-1.0843,-1.0863,-1.0864,-1.0887,-1.0892,-1.0908,-1.0914,-1.0921,-1.0928,-1.0947,-1.0958,-1.0962,-1.0969,-1.0982,-1.0995,-1.0996,-1.1001,-1.1008,-1.1008,-1.0978,-1.0974,-1.0971,-1.0966,-1.1009,-1.1009,-1.1039,-1.1039,-1.1039]},{"header":{"parameterUnit":"m.s-1","parameterCategory":1,"la1":30.2991,"la2":30.254,"lo1":-89.0895,"lo2":-89.0444,"dy":0.0017,"dx":0.0017,"nx":28,"ny":28,"refTime":"2025-07-25T03:00:00:Z","depth":0,"parameterNumber":3,"parameterNumberName":"V-component_of_WINDS"},"data":[0,0,0,0,0,0,0,0,0,0,0,0,0,0,0,0,0,0,0,0,0,0,0,0,0,0,0,0,0,0,0,0,0,0,0,0,0,0,0,0,0,0,0,0,0,0,0,0,0,0,0,0,0,0,0,0,0,0,4.9621,4.9621,0,4.9603,4.9603,4.9603,4.9588,4.9588,4.9588,4.9587,4.9566,4.9566,4.9566,0,0,0,0,0,0,0,0,0,0,0,0,0,4.9641,4.9641,4.9621,4.9621,4.9621,4.9603,4.9603,4.9603,4.9588,4.9588,4.9588,4.9587,4.9567,4.9566,4.9566,0,0,0,0,0,0,0,0,0,0,0,0,0,4.9629,4.9641,4.9621,4.9611,4.961,4.9603,4.9603,4.9603,4.9588,4.9588,4.9588,4.9587,4.9567,4.9566,4.9566,4.9566,0,0,4.9564,4.9563,0,0,0,0,0,0,0,0,4.9629,4.9628,4.9613,4.9612,4.9611,4.9598,4.9602,4.959,4.9588,4.9596,4.9587,4.9587,4.9577,4.9575,4.9572,4.9565,4.9564,4.9564,4.9563,4.9563,4.9563,0,0,0,0,0,0,0,4.963,4.9629,4.9614,4.9613,4.9612,4.9607,4.9605,4.96,4.9588,4.9596,4.9595,4.9593,4.9576,4.9573,4.9572,4.9564,4.9564,4.9563,4.9563,4.9562,4.9556,4.9556,0,0,0,0,0,0,4.9633,4.963,4.9615,4.9613,4.962,4.9607,4.9605,4.9602,4.9588,4.9586,4.9593,4.9592,4.9574,4.9573,4.9571,4.9571,4.9563,4.9562,4.9562,4.9556,4.9556,4.9557,0,0,0,0,0,0,4.9634,4.9632,4.9615,4.9621,4.9619,4.9607,4.9604,4.9602,4.9599,4.9586,4.9584,4.9592,4.9574,4.9572,4.9568,4.957,4.9562,4.9561,4.9556,4.9556,4.9556,4.9571,0,0,0,0,0,0,4.9634,4.9632,4.9633,4.9621,4.9619,4.9613,4.9604,4.9602,4.9598,4.9597,4.9585,4.9582,4.9574,4.9569,4.9567,4.9569,4.9561,4.9556,4.9556,4.9556,4.957,4.9571,4.9573,0,0,0,0,0,4.9635,4.9637,4.9633,4.9631,4.9619,4.9613,4.9611,4.9602,4.9598,4.9598,4.959,4.9583,4.957,4.9568,4.9566,4.9568,4.9555,4.9556,4.9556,4.9569,4.9571,4.9573,0,0,0,0,0,0,4.9647,4.9635,4.963,4.9629,4.9622,4.9611,4.961,4.9604,4.9598,4.9597,4.9585,4.9582,4.958,4.9573,4.9572,4.9568,4.9562,4.9562,4.9572,4.9574,4.9575,4.9577,4.956,0,0,0,0,0,4.965,4.9647,4.9636,4.9636,4.9633,4.9622,4.9619,4.9613,4.9605,4.9602,4.9594,4.9586,4.958,4.9577,4.9571,4.9569,4.9566,4.9569,4.9571,4.9572,4.9572,4.9571,4.9572,4.9558,4.9558,4.9558,0,0,4.9656,4.9648,4.9647,4.9638,4.9632,4.9629,4.962,4.9616,4.9614,4.9601,4.9597,4.9591,4.9581,4.9578,4.9577,4.9573,4.9575,4.9572,4.9573,4.9573,4.9571,4.9573,4.9574,4.9559,4.9558,4.9558,0,0,4.9663,4.9658,4.9657,4.9652,4.9643,4.9636,4.9636,4.9626,4.9621,4.9617,4.9608,4.9604,4.9594,4.9588,4.9584,4.959,4.9583,4.9589,4.9596,4.9595,4.9596,4.9597,4.9599,4.96,4.9589,4.9589,4.9589,0,4.9671,4.9666,4.9657,4.9655,4.9651,4.9641,4.9639,4.9634,4.9624,4.9622,4.9618,4.9606,4.9599,4.9595,4.9597,4.9593,4.9592,4.959,4.9596,4.9597,4.9598,4.96,4.9601,4.959,4.9589,4.9589,4.9589,0,4.9676,4.9672,4.9673,4.9664,4.966,4.9658,4.9649,4.9646,4.964,4.9634,4.9629,4.9621,4.9613,4.9611,4.9605,4.9606,4.9604,4.9599,4.9592,4.96,4.9602,4.9603,4.9591,4.959,4.959,4.959,0,0,4.969,4.9678,4.9678,4.9674,4.9664,4.9661,4.9659,4.9652,4.965,4.9644,4.9641,4.9634,4.9629,4.9624,4.9617,4.9616,4.9622,4.961,4.961,4.9613,4.9622,4.9627,4.9628,4.9617,4.9617,4.9617,4.9623,0,4.9697,4.9693,4.9685,4.9683,4.968,4.967,4.9668,4.9662,4.9656,4.9652,4.9644,4.964,4.9633,4.963,4.9629,4.9621,4.9623,4.9621,4.9614,4.9614,4.9617,4.9629,4.9633,4.9639,4.9624,4.9624,4.9624,0,4.9704,4.9699,4.9697,4.9688,4.9686,4.9684,4.9678,4.9674,4.9667,4.9662,4.9657,4.965,4.9647,4.9641,4.9636,4.9634,4.9631,4.9627,4.9627,4.9625,4.9619,4.9628,4.9641,4.9642,4.9625,4.9625,4.9625,0,4.9715,4.9707,4.9706,4.9702,4.9692,4.9691,4.9686,4.9679,4.9675,4.967,4.9667,4.9661,4.9657,4.9652,4.9643,4.964,4.9639,4.9632,4.9635,4.9635,4.9635,4.9635,4.9647,4.9633,4.9633,4.9633,4.9633,0,4.9723,4.9722,4.9711,4.9709,4.9708,4.9699,4.9698,4.9692,4.9686,4.9683,4.9674,4.9671,4.966,4.9655,4.9648,4.9645,4.9643,4.9639,4.9638,4.964,4.9641,4.9638,4.9637,4.9633,4.9633,4.9633,4.9633,0,4.9735,4.9727,4.9725,4.9715,4.9713,4.9712,4.9704,4.9702,4.9696,4.9692,4.9691,4.9681,4.9675,4.9666,4.9658,4.9653,4.9651,4.9648,4.9654,4.9653,4.9656,4.9656,4.9667,4.9668,4.9653,4.9653,4.9653,0,4.974,4.974,4.9731,4.9728,4.9725,4.9721,4.9718,4.9709,4.9706,4.9698,4.9697,4.9691,4.9686,4.9678,4.9669,4.9663,4.966,4.9664,4.9659,4.9662,4.966,4.966,4.966,4.9665,4.9665,4.9666,4.9666,0,4.9751,4.9748,4.9744,4.9739,4.9736,4.9731,4.9726,4.9724,4.9714,4.9711,4.9706,4.9702,4.9695,4.9689,4.9682,4.9676,4.9669,4.9668,4.9668,4.9671,4.9674,4.9673,4.9658,4.9667,4.9667,4.9667,4.9667,4.9667,4.976,4.9759,4.9753,4.9749,4.9744,4.974,4.9738,4.9732,4.9728,4.9721,4.9716,4.9712,4.9704,4.9694,4.9689,4.9685,4.9682,4.9682,4.9682,4.9682,4.9684,4.9675,4.9684,4.9683,4.9683,4.9683,4.9683,0,4.9771,4.9766,4.9763,4.9756,4.9753,4.9748,4.9742,4.974,4.9736,4.973,4.9726,4.972,4.9715,4.9706,4.97,4.9699,4.9695,4.9697,4.9697,4.9696,4.9687,4.9687,4.97,4.97,4.97,4.97,4.97,4.97,4.9776,4.9774,4.977,4.9766,4.9761,4.9757,4.9755,4.975,4.9746,4.974,4.9736,4.9731,4.9724,4.9717,4.9712,4.9709,4.9707,4.971,4.9707,4.9698,4.9697,4.9695,4.9696,4.971,4.971,4.9717,4.9717,4.9717]}]]